Showing default

IRNSS 1C, 40269

Orbit data source: Space-Track

IRNSS 1C, 40269 is a payload satellite owned by ISRO (IN) in GEO that was launched on Wed, 15 Oct 2014 UTC via a PSLV-XL launch vehicle from the Sirharikota (SRI). Payload-class satellites include a variety of spacecraft equipped with specific instruments for various scientific and technological missions. These include communications satellites like Starlink; space stations such as the ISS; scientific satellites like the Hubble; Earth observation satellites from companies like Planet Labs, Umbra, and HawkEye 360; GPS; miniature CubeSats for education and research; and military/defense satellites.

Not visible in the next 10 days
Identifier
40269, 2014-061A
Orbit
GEO
Country
Flag of ININ / IND
Related business
Manufacturer
ISRO SAC/Banga
Mission
Partially operational Civil Navigation
Bus & Motor
I1K, ISRO LAM
Mass
1,425 kg wet, 600 kg dry
Launch date (UTC)
2014-10-15 (11 years ago)
Launch vehicle
PSLV-XL
Launch site
Sirharikota (SRI)
Object type
Payload
Rocket body
Debris
Shape & HBR
Box + 2 Pan, 5.0 m
Radar Cross Section
6.961 m²

Expand to show TLE details & history
Last TLE update: 2 days ago

TLE from 2 days ago
0 IRNSS 1C
1 40269U 14061A   25337.79043389 -.00000146  00000-0  00000-0 0  9998
2 40269   6.0182  92.8005 0017858   2.7549 344.8365  1.00269160 40721
Epoch: 2025-12-03T18:58Z
TLE epoch observation values (Epoch: 2025-12-03T18:58:13.488Z)
Latitude
-1.27227°
Longitude
82.97539°
Altitude
35,714.034 km
Speed
3.08 km/s
True Right ascension
05h 21m 33s
True Declination
-1° 16' 16"
Sunlit
Object was in daylight at epoch
Visualization orbit readout
Latitude
Unknown
Longitude
Unknown
Altitude
Unknown
Speed
Unknown
Apparent Right ascension
Unknown
Apparent Declination
Unknown
Sunlit
N/A
Visualization observer readout
Local Sidereal Time
07:08:12
Azimuth
Unknown
Elevation
Unknown
Doppler factor
Unknown
Orbital elements
Apogee altitude
35,863.685 km
Perigee altitude
35,713.083 km
Semi-major axis
42,166.521 km
Eccentricity
0.00179
Inclination
6.0182°
RAAN
92.8005°
Arg. of periapsis
2.7549°
True anomaly
344.78286°
Mean anomaly
344.8365°
Eccentric anomaly
344.80969°
Mean motion
0.25066 °/min
Orbital period
1,436.19 mins
BSTAR
0
Loading maneuver chart data...
Computing Atmospheric mass density...
Loading historical data...
Loading historical data...
Loading historical data...
Loading historical data...
Loading historical data...
Loading historical data...
Loading historical data...
Other satellites on launch #61 in the year 2014 (2014-10-15 UTC)

Documentation

Showing up to 5 results
|